Stations météo

réclame
Mon MeteoGroup
Tännäs, Suède (2308): Température de l'air & dewpoint: 15.10.2017 06:00:00 - 21.10.2017 06:00:00 (CEST)Tännäs, Suède (2308): Vitesse du vent & gusts: 15.10.2017 06:00:00 - 21.10.2017 06:00:00 (CEST)Tännäs, Suède (2308): Direction du vent: 15.10.2017 06:00:00 - 21.10.2017 06:00:00 (CEST)Tännäs, Suède (2308): reduced air pressure: 15.10.2017 06:00:00 - 21.10.2017 06:00:00 (CEST)Tännäs, Suède (2308): visibility: 15.10.2017 06:00:00 - 21.10.2017 06:00:00 (CEST)Tännäs, Suède (2308): Quantités de précipitations: 15.10.2017 06:00:00 - 21.10.2017 06:00:00 (CEST)
Date & Time tt [°C] td [°C] ff [km/h] ff [knt] fx [km/h] fx [knt] dd ppp [hPa] vv [km] rr [mm]
21.10.2017 06:00:00 0,3 -0,8 10 5 23 12 S 1023,3 50 0,0
21.10.2017 05:00:00 0,4 -1,0 9 5 19 10 S 1023,4 50 0,0
21.10.2017 04:00:00 0,5 -0,8 9 5 23 12 S 1023,6 50 0,0
21.10.2017 03:00:00 0,7 -0,6 6 3 18 10 S 1023,6 50 0,0
21.10.2017 02:00:00 0,8 -0,1 6 3 20 11 SSE 1023,5 50 0,0
21.10.2017 01:00:00 0,8 0,1 6 4 22 12 SSE 1023,5 50 0,0
21.10.2017 00:00:00 0,9 -0,3 5 3 18 10 SSE 1023,5 50 0,0
20.10.2017 23:00:00 0,9 -0,4 4 2 17 9 SE 1023,2 50 0,0
20.10.2017 22:00:00 1,0 -0,5 5 3 14 8 SSE 1023,0 50 0,0
20.10.2017 21:00:00 1,1 -0,2 3 2 14 8 SSE 1023,0 50 0,0
20.10.2017 20:00:00 1,2 0,0 5 3 13 7 ESE 1022,8 50 0,0
20.10.2017 19:00:00 1,4 0,1 5 3 19 10 SSE 1022,6 50 0,0
20.10.2017 18:00:00 1,6 0,1 7 4 18 10 ESE 1022,2 50 0,0
20.10.2017 17:00:00 1,6 0,3 7 4 19 11 ESE 1022,2 50 0,0
20.10.2017 16:00:00 1,5 0,3 8 4 18 10 ESE 1022,0 50 0,0
20.10.2017 15:00:00 1,1 0,1 9 5 19 10 E 1021,9 50 0,0
20.10.2017 14:00:00 0,8 -0,2 8 4 18 10 E 1021,9 50 0,0
20.10.2017 13:00:00 0,6 -0,4 8 4 19 10 E 1021,8 49 0,0
20.10.2017 12:00:00 0,1 -0,9 7 4 19 11 E 1021,9 50 0,0
20.10.2017 11:00:00 0,0 -0,8 6 4 13 7 E 1021,7 50 0,0
20.10.2017 10:00:00 -0,1 -1,1 4 2 15 8 ESE 1021,4 50 0,0
20.10.2017 09:00:00 -0,4 -1,2 6 3 13 7 ESE 1020,8 50 0,0
20.10.2017 08:00:00 -1,4 -2,0 3 2 13 7 ENE 1020,8 50 0,0
20.10.2017 07:00:00 -1,2 -1,9 5 3 11 6 E 1020,8 50 0,0
20.10.2017 06:00:00 -1,0 -1,6 5 3 11 6 E 1020,7 50 0,0
20.10.2017 05:00:00 -1,6 -2,0 2 1 11 6 S 1020,9 50 0,0
20.10.2017 04:00:00 -2,6 -3,1 5 3 11 6 E 1021,2 50 0,0
20.10.2017 03:00:00 -1,9 -2,6 4 2 10 5 ESE 1021,3 50 0,0
20.10.2017 02:00:00 -1,4 -1,8 4 2 11 6 SE 1021,2 50 0,0
20.10.2017 01:00:00 -1,6 -2,3 3 1 14 8 SE 1021,2 50 0,0
20.10.2017 00:00:00 -1,2 -1,9 4 2 10 5 ESE 1021,2 50 0,0
19.10.2017 23:00:00 -1,3 -2,3 3 1 9 5 SE 1021,3 50 0,0
19.10.2017 22:00:00 -1,4 -2,5 2 1 12 7 W 1021,2 50 0,0
19.10.2017 21:00:00 -0,6 -1,9 3 2 10 5 SSE 1021,0 50 0,0
19.10.2017 20:00:00 0,3 -1,5 3 2 9 5 SE 1021,0 50 0,0
19.10.2017 19:00:00 0,6 -1,6 2 1 9 5 S 1020,8 50 0,0
19.10.2017 18:00:00 1,0 -2,1 3 1 11 6 ESE 1020,5 50 0,0
19.10.2017 17:00:00 3,7 -1,7 5 3 16 9 SSW 1019,8 50 0,0
19.10.2017 16:00:00 5,6 -1,3 8 4 19 11 S 1019,3 50 0,0
19.10.2017 15:00:00 6,2 -0,8 7 4 19 10 S 1019,2 50 0,0
19.10.2017 14:00:00 5,6 -0,3 6 3 16 8 SSW 1019,9 50 0,0
19.10.2017 13:00:00 4,7 0,8 5 3 10 5 S 1020,4 50 0,0
19.10.2017 12:00:00 2,9 0,3 4 2 7 4 S 1021,0 48 0,0
19.10.2017 11:00:00 0,6 -0,4 3 1 6 3 S 1021,7 50 0,0
19.10.2017 10:00:00 -0,9 -1,2 2 1 5 3 S 1021,8 50 0,0
19.10.2017 09:00:00 -2,0 -2,3 1 1 6 4 NW 1021,5 50 0,0
19.10.2017 08:00:00 -2,1 -2,4 2 1 5 3 ENE 1021,3 50 0,0
19.10.2017 07:00:00 -1,4 -1,8 3 2 7 4 ESE 1021,0 50 0,0
19.10.2017 06:00:00 -0,7 -1,3 2 1 10 5 NNW 1020,9 50 0,0
19.10.2017 05:00:00 -0,6 -1,0 4 2 10 5 NNW 1020,7 50 0,0
19.10.2017 04:00:00 -0,7 -1,1 3 2 8 5 NNW 1020,6 50 0,0
19.10.2017 03:00:00 -1,3 -1,9 2 1 6 4 ESE 1020,4 50 0,0
19.10.2017 02:00:00 -0,3 -1,0 2 1 11 6 NNW 1019,9 50 0,0
19.10.2017 01:00:00 0,3 -0,8 4 2 15 8 N 1019,5 50 0,0
19.10.2017 00:00:00 0,1 -0,9 4 2 11 6 NW 1019,5 50 0,0
18.10.2017 23:00:00 0,5 -0,8 3 2 10 6 N 1019,4 50 0,0
18.10.2017 22:00:00 1,2 -0,6 4 2 16 9 NW 1019,0 50 0,0
18.10.2017 21:00:00 0,6 -0,5 3 2 17 9 NNW 1018,6 50 0,0
18.10.2017 20:00:00 2,2 -0,6 6 3 31 17 W 1017,6 50 0,0
18.10.2017 19:00:00 2,4 -0,4 7 4 24 13 WNW 1016,8 50 0,0
18.10.2017 18:00:00 2,4 0,0 4 2 24 13 WNW 1016,6 50 0,0
18.10.2017 17:00:00 3,6 -0,1 8 4 39 21 WNW 1015,3 40 0,0
18.10.2017 16:00:00 4,3 0,1 13 7 35 19 W 1014,4 50 0,0
18.10.2017 15:00:00 4,5 1,2 12 7 33 18 W 1013,8 50 0,0
18.10.2017 14:00:00 4,1 1,0 11 6 34 18 WNW 1013,7 35 0,0
18.10.2017 13:00:00 4,0 1,0 15 8 37 20 WNW 1012,8 50 0,0
18.10.2017 12:00:00 3,4 1,3 11 6 37 20 WNW 1012,5 44 0,0
18.10.2017 11:00:00 2,7 1,2 11 6 36 20 WNW 1012,1 50 0,0
18.10.2017 10:00:00 2,4 1,1 13 7 32 17 WNW 1011,3 38 0,0
18.10.2017 09:00:00 1,5 0,5 7 4 28 15 WNW 1010,6 50 0,0
18.10.2017 08:00:00 1,1 0,4 8 5 24 13 WNW 1010,0 50 0,0
18.10.2017 07:00:00 0,6 0,0 4 2 32 17 WNW 1009,5 50 0,0
18.10.2017 06:00:00 0,8 -0,1 5 3 23 13 WNW 1009,0 50 0,0
18.10.2017 05:00:00 0,9 -0,1 6 4 23 13 NW 1008,4 50 0,0
18.10.2017 04:00:00 0,6 -0,3 5 3 18 10 WNW 1008,2 50 0,0
18.10.2017 03:00:00 -0,2 -0,8 4 2 19 11 NW 1007,9 50 0,0
18.10.2017 02:00:00 0,0 -0,7 3 2 16 9 NNW 1007,4 50 0,0
18.10.2017 01:00:00 0,0 -0,3 3 2 8 5 WNW 1006,8 47 0,0
18.10.2017 00:00:00 0,0 -0,3 4 2 11 6 NNW 1006,2 50 0,0
17.10.2017 23:00:00 -0,2 -0,6 2 1 9 5 SE 1005,6 50 0,0
17.10.2017 22:00:00 0,0 -0,3 4 2 13 7 W 1004,8 50 0,0
17.10.2017 21:00:00 -0,1 -0,4 2 1 13 7 ESE 1004,3 50 0,0
17.10.2017 20:00:00 0,1 -0,2 1 1 6 4 SSE 1003,7 50 0,0
17.10.2017 19:00:00 0,2 0,1 2 1 6 4 NW 1003,3 22 0,0
17.10.2017 18:00:00 0,2 0,1 1 1 4 2 NNE 1002,9 13 0,2
17.10.2017 17:00:00 0,2 0,1 1 1 6 3 NW 1002,7 3,9 0,5
17.10.2017 16:00:00 0,1 0,0 3 2 5 3 WNW 1003,0 1,8 0,6
17.10.2017 15:00:00 0,2 0,1 2 1 6 4 SSW 1003,2 1,1 0,5
17.10.2017 14:00:00 0,3 0,0 1 1 6 3 W 1003,9 0,8 0,5
17.10.2017 13:00:00 0,3 0,2 1 1 13 7 SW 1004,5 2,0 1,4
17.10.2017 12:00:00 0,3 0,2 4 2 14 7 E 1005,3 1,8 0,9
17.10.2017 11:00:00 0,4 0,1 6 3 13 7 E 1006,1 3,0 0,7
17.10.2017 10:00:00 0,3 0,2 3 1 7 4 E 1007,3 6 1,0
17.10.2017 09:00:00 0,5 0,1 1 1 14 8 NE 1008,1 3,2 0,2
17.10.2017 08:00:00 0,9 0,5 5 3 14 7 E 1008,8 50 0,0
17.10.2017 07:00:00 0,5 0,1 3 2 11 6 SE 1010,0 24 0,6
17.10.2017 06:00:00 0,0 -0,6 3 1 9 5 W 1011,7 14 0,3
17.10.2017 05:00:00 0,3 -1,1 3 2 11 6 ENE 1012,6 29 0,0
17.10.2017 04:00:00 0,8 -1,1 3 2 10 5 NW 1013,7 50 0,0
17.10.2017 03:00:00 0,0 -1,7 3 2 9 5 SE 1015,1 50 0,0
17.10.2017 02:00:00 0,6 -1,0 2 1 9 5 NNW 1015,4 50 0,0
17.10.2017 01:00:00 -0,7 -2,0 3 1 10 6 N 1015,4 50 0,0
17.10.2017 00:00:00 0,1 -1,5 2 1 9 5 NNW 1015,4 50 0,0
16.10.2017 23:00:00 0,2 -1,4 1 1 8 5 W 1015,8 50 0,0
16.10.2017 22:00:00 0,2 -1,6 4 2 8 4 NNW 1015,5 50 0,0
16.10.2017 21:00:00 0,5 -1,4 1 1 8 5 NW 1015,4 50 0,0
16.10.2017 20:00:00 1,3 -1,6 4 2 9 5 NW 1015,1 50 0,0
16.10.2017 19:00:00 1,0 -1,7 3 2 7 4 NNW 1015,2 50 0,0
16.10.2017 18:00:00 1,9 -1,5 3 1 16 8 NW 1014,6 50 0,0
16.10.2017 17:00:00 4,7 -1,1 2 1 27 15 WSW 1013,4 50 0,0
16.10.2017 16:00:00 6,2 -1,0 10 6 25 14 WNW 1012,6 50 0,0
16.10.2017 15:00:00 6,1 -0,2 11 6 29 16 WNW 1012,4 50 0,0
16.10.2017 14:00:00 4,6 0,6 10 6 34 18 WNW 1012,5 50 0,0
16.10.2017 13:00:00 4,3 0,1 13 7 34 18 W 1012,0 50 0,0
16.10.2017 12:00:00 4,2 0,3 10 5 40 21 W 1011,3 50 0,0
16.10.2017 11:00:00 4,4 0,7 14 7 41 22 WNW 1009,8 50 0,0
16.10.2017 10:00:00 4,2 0,9 9 5 32 17 W 1008,5 50 0,0
16.10.2017 09:00:00 4,5 1,2 7 4 33 18 W 1006,9 50 0,0
16.10.2017 08:00:00 5,2 1,1 10 5 39 21 WNW 1005,9 50 0,0
16.10.2017 07:00:00 6,5 1,8 15 8 55 30 WNW 1003,6 50 0,0
16.10.2017 06:00:00 9,6 2,2 13 7 45 24 W 1000,6 50 0,0
16.10.2017 05:00:00 9,8 5,2 10 5 43 23 SW 998,7 50 0,0
16.10.2017 04:00:00 8,6 6,0 8 4 25 13 SSW 999,2 50 0,0
16.10.2017 03:00:00 8,8 6,8 9 5 36 20 SSW 998,9 50 0,0
16.10.2017 02:00:00 8,9 7,0 14 8 26 14 SW 999,2 42 0,0
16.10.2017 01:00:00 7,9 6,8 7 4 22 12 S 1000,0 40 0,0
16.10.2017 00:00:00 7,1 6,5 6 4 20 11 SSW 1001,0 36 0,0
15.10.2017 23:00:00 6,5 6,2 5 3 19 10 SSW 1002,4 26 0,0
15.10.2017 22:00:00 5,6 5,5 7 4 22 12 S 1004,2 23 0,0
15.10.2017 21:00:00 4,5 4,4 5 3 20 11 SSE 1005,5 15 0,6
15.10.2017 20:00:00 3,9 3,6 10 5 20 11 S 1006,7 8 0,7
15.10.2017 19:00:00 3,4 3,0 8 5 20 11 S 1008,0 14 0,3
15.10.2017 18:00:00 3,2 2,6 8 4 19 10 SSE 1008,8 21 0,3
15.10.2017 17:00:00 3,6 2,7 7 4 16 9 SSE 1010,0 42 0,3
15.10.2017 16:00:00 3,7 2,5 7 4 16 9 SE 1011,1 13 0,2
15.10.2017 15:00:00 3,9 2,3 6 4 24 13 SSE 1012,3 11 0,1
15.10.2017 14:00:00 5,6 1,3 6 3 15 8 S 1012,5 50 0,0
15.10.2017 13:00:00 5,8 0,9 4 2 9 5 SSE 1012,6 50 0,0
15.10.2017 12:00:00 5,5 0,7 5 3 11 6 S 1013,5 50 0,0
15.10.2017 11:00:00 5,0 0,2 4 2 24 13 ESE 1014,0 37 0,0
15.10.2017 10:00:00 5,0 -0,4 5 3 17 9 W 1013,5 50 0,0
15.10.2017 09:00:00 2,3 -0,5 3 2 19 10 NNW 1014,2 48 0,0
15.10.2017 08:00:00 3,4 -1,0 8 5 25 13 SW 1013,2 50 0,0
15.10.2017 07:00:00 3,5 -1,1 6 4 21 11 W 1012,8 50 0,0
15.10.2017 06:00:00 3,5 -1,3 5 3 27 14 WSW 1012,6 50 0,0

tt = Température de l'air
td = dewpoint
ff = Vitesse du vent
fx = gusts
dd = Direction du vent
ppp = reduced air pressure
vv = visibility
rr = Quantités de précipitations

stations d'obs. à proximité